• Em Portugal
  • Lista de países
  • Para 7 dias
  • Temperatura da água
  • Mapas de satélite
  • Mapa do tempo
  • Widgets de tempo
  • user-avatar
    Iniciar Sessão

    Previsão horária em Tafilah

    Hoje, 21 Novembro, Terça-feira

    Tempo Temperatura Precipitação Vento Pressão Humidade
    00:00 +14°C° 0 mm 2 m/s 698 mmHg 64%
    01:00 +13°C° 0 mm 2 m/s 698 mmHg 62%
    02:00 +13°C° 0 mm 2 m/s 697 mmHg 62%
    03:00 +13°C° 0 mm 2 m/s 698 mmHg 63%
    04:00 +11°C° 0 mm 3 m/s 698 mmHg 65%
    05:00 +11°C° 0 mm 3 m/s 698 mmHg 66%
    06:00 +12°C° 0 mm 3 m/s 698 mmHg 64%
    07:00 +13°C° 0 mm 4 m/s 698 mmHg 61%
    08:00 +13°C° 0 mm 4 m/s 698 mmHg 58%
    09:00 +14°C° 0 mm 5 m/s 698 mmHg 56%
    10:00 +15°C° 0 mm 5 m/s 698 mmHg 53%
    11:00 +16°C° 0 mm 5 m/s 698 mmHg 51%
    12:00 +16°C° 0 mm 6 m/s 698 mmHg 51%
    13:00 +17°C° 0 mm 6 m/s 698 mmHg 50%
    14:00 +17°C° 0 mm 6 m/s 698 mmHg 50%
    15:00 +16°C° 0,1 mm 6 m/s 698 mmHg 56%
    16:00 +15°C° 0,1 mm 6 m/s 698 mmHg 62%
    17:00 +14°C° 0,1 mm 6 m/s 698 mmHg 68%
    18:00 +14°C° 0,1 mm 6 m/s 698 mmHg 68%
    19:00 +13°C° 0,1 mm 6 m/s 698 mmHg 68%
    20:00 +13°C° 0,1 mm 5 m/s 698 mmHg 68%
    21:00 +12°C° 0 mm 5 m/s 699 mmHg 69%
    22:00 +12°C° 0 mm 5 m/s 699 mmHg 69%
    23:00 +10°C° 0 mm 5 m/s 699 mmHg 69%

    Amanhã, 22 Novembro, Quarta-feira

    Tempo Temperatura Precipitação Vento Pressão Humidade
    00:00 +10°C° 0 mm 5 m/s 699 mmHg 70%
    01:00 +10°C° 0 mm 4 m/s 699 mmHg 71%
    02:00 +10°C° 0 mm 4 m/s 699 mmHg 72%
    03:00 +10°C° 0 mm 4 m/s 699 mmHg 73%
    04:00 +10°C° 0 mm 4 m/s 699 mmHg 74%
    05:00 +10°C° 0 mm 4 m/s 699 mmHg 75%
    06:00 +10°C° 0 mm 4 m/s 699 mmHg 73%
    07:00 +10°C° 0 mm 4 m/s 699 mmHg 70%
    08:00 +11°C° 0 mm 4 m/s 700 mmHg 68%
    09:00 +11°C° 0 mm 4 m/s 700 mmHg 63%
    10:00 +12°C° 0 mm 4 m/s 700 mmHg 58%
    11:00 +13°C° 0 mm 4 m/s 700 mmHg 53%
    12:00 +13°C° 0 mm 5 m/s 700 mmHg 52%
    13:00 +13°C° 0 mm 5 m/s 699 mmHg 50%
    14:00 +14°C° 0 mm 5 m/s 699 mmHg 49%
    15:00 +13°C° 0 mm 5 m/s 699 mmHg 52%
    16:00 +13°C° 0 mm 4 m/s 699 mmHg 54%
    17:00 +12°C° 0 mm 4 m/s 699 mmHg 57%
    18:00 +12°C° 0 mm 4 m/s 700 mmHg 59%
    19:00 +11°C° 0 mm 3 m/s 700 mmHg 62%
    20:00 +11°C° 0 mm 3 m/s 700 mmHg 64%
    21:00 +10°C° 0 mm 3 m/s 700 mmHg 65%
    22:00 +10°C° 0 mm 3 m/s 700 mmHg 65%
    23:00 +10°C° 0 mm 3 m/s 701 mmHg 66%

    Depois de amanhã, 23 Novembro, Quinta-feira

    Tempo Temperatura Precipitação Vento Pressão Humidade
    00:00 +9°C° 0 mm 2 m/s 700 mmHg 67%
    01:00 +9°C° 0 mm 2 m/s 700 mmHg 69%
    02:00 +9°C° 0 mm 2 m/s 700 mmHg 70%
    03:00 +8°C° 0 mm 2 m/s 700 mmHg 71%
    04:00 +8°C° 0 mm 2 m/s 700 mmHg 72%
    05:00 +9°C° 0 mm 1 m/s 700 mmHg 74%
    06:00 +9°C° 0 mm 1 m/s 700 mmHg 71%
    07:00 +10°C° 0 mm 1 m/s 701 mmHg 69%
    08:00 +11°C° 0 mm 1 m/s 701 mmHg 66%
    09:00 +12°C° 0 mm 1 m/s 701 mmHg 62%
    10:00 +12°C° 0 mm 1 m/s 701 mmHg 58%
    11:00 +13°C° 0 mm 1 m/s 702 mmHg 55%
    12:00 +14°C° 0 mm 2 m/s 701 mmHg 53%
    13:00 +14°C° 0 mm 2 m/s 701 mmHg 51%
    14:00 +15°C° 0 mm 2 m/s 700 mmHg 49%
    15:00 +14°C° 0 mm 2 m/s 700 mmHg 50%
    16:00 +14°C° 0 mm 2 m/s 700 mmHg 51%
    17:00 +13°C° 0 mm 2 m/s 700 mmHg 53%
    18:00 +13°C° 0 mm 1 m/s 701 mmHg 55%
    19:00 +12°C° 0 mm 1 m/s 701 mmHg 56%
    20:00 +12°C° 0 mm 1 m/s 701 mmHg 58%
    21:00 +12°C° 0 mm 1 m/s 701 mmHg 60%
    22:00 +11°C° 0 mm 1 m/s 701 mmHg 61%
    23:00 +11°C° 0 mm 1 m/s 701 mmHg 62%

    24 Novembro, Sexta-feira

    Tempo Temperatura Precipitação Vento Pressão Humidade
    00:00 +10°C° 0 mm 1 m/s 701 mmHg 64%
    01:00 +10°C° 0 mm 1 m/s 701 mmHg 65%
    02:00 +10°C° 0 mm 1 m/s 701 mmHg 67%
    03:00 +9°C° 0 mm 1 m/s 701 mmHg 67%
    04:00 +9°C° 0 mm 1 m/s 701 mmHg 68%
    05:00 +8°C° 0 mm 0 m/s 700 mmHg 69%
    06:00 +10°C° 0 mm 1 m/s 701 mmHg 64%
    07:00 +11°C° 0 mm 1 m/s 702 mmHg 60%
    08:00 +12°C° 0 mm 1 m/s 702 mmHg 56%
    09:00 +13°C° 0 mm 1 m/s 702 mmHg 52%
    10:00 +14°C° 0 mm 1 m/s 702 mmHg 48%
    11:00 +15°C° 0 mm 1 m/s 702 mmHg 43%
    12:00 +15°C° 0 mm 1 m/s 702 mmHg 41%
    13:00 +16°C° 0 mm 1 m/s 702 mmHg 40%
    14:00 +16°C° 0 mm 2 m/s 701 mmHg 38%
    15:00 +16°C° 0 mm 2 m/s 701 mmHg 40%
    16:00 +15°C° 0 mm 2 m/s 701 mmHg 42%
    17:00 +15°C° 0 mm 2 m/s 701 mmHg 44%
    18:00 +14°C° 0 mm 1 m/s 702 mmHg 46%
    19:00 +14°C° 0 mm 1 m/s 702 mmHg 47%
    20:00 +13°C° 0 mm 1 m/s 702 mmHg 49%
    21:00 +13°C° 0 mm 1 m/s 702 mmHg 50%
    22:00 +13°C° 0 mm 1 m/s 702 mmHg 51%
    23:00 +12°C° 0 mm 1 m/s 702 mmHg 53%

    25 Novembro, Sábado

    Tempo Temperatura Precipitação Vento Pressão Humidade
    00:00 +12°C° 0 mm 2 m/s 702 mmHg 53%
    01:00 +12°C° 0 mm 2 m/s 702 mmHg 53%
    02:00 +10°C° 0 mm 2 m/s 702 mmHg 54%
    03:00 +10°C° 0 mm 2 m/s 702 mmHg 54%
    04:00 +10°C° 0 mm 2 m/s 702 mmHg 54%
    05:00 +10°C° 0 mm 2 m/s 702 mmHg 53%
    06:00 +12°C° 0 mm 2 m/s 702 mmHg 51%
    07:00 +12°C° 0 mm 3 m/s 702 mmHg 48%
    08:00 +12°C° 0 mm 3 m/s 703 mmHg 45%
    09:00 +14°C° 0 mm 3 m/s 703 mmHg 40%
    10:00 +16°C° 0 mm 3 m/s 703 mmHg 36%
    11:00 +18°C° 0 mm 4 m/s 702 mmHg 32%
    12:00 +18°C° 0 mm 3 m/s 702 mmHg 30%
    13:00 +19°C° 0 mm 3 m/s 702 mmHg 29%
    14:00 +20°C° 0 mm 3 m/s 701 mmHg 28%
    15:00 +19°C° 0 mm 3 m/s 701 mmHg 29%
    16:00 +18°C° 0 mm 3 m/s 701 mmHg 31%
    17:00 +18°C° 0 mm 3 m/s 701 mmHg 33%
    18:00 +17°C° 0 mm 3 m/s 701 mmHg 34%
    19:00 +17°C° 0 mm 3 m/s 701 mmHg 35%
    20:00 +16°C° 0 mm 3 m/s 701 mmHg 37%
    21:00 +16°C° 0 mm 3 m/s 701 mmHg 38%
    22:00 +16°C° 0 mm 3 m/s 701 mmHg 39%
    23:00 +14°C° 0 mm 3 m/s 701 mmHg 40%

    26 Novembro, Domingo

    Tempo Temperatura Precipitação Vento Pressão Humidade
    00:00 +14°C° 0 mm 3 m/s 701 mmHg 40%
    01:00 +13°C° 0 mm 3 m/s 701 mmHg 41%
    02:00 +13°C° 0 mm 3 m/s 700 mmHg 42%
    03:00 +13°C° 0 mm 3 m/s 700 mmHg 43%
    04:00 +12°C° 0 mm 3 m/s 700 mmHg 43%
    05:00 +12°C° 0 mm 3 m/s 700 mmHg 44%
    06:00 +12°C° 0 mm 3 m/s 700 mmHg 42%
    07:00 +13°C° 0 mm 3 m/s 701 mmHg 40%
    08:00 +14°C° 0 mm 3 m/s 701 mmHg 38%
    09:00 +16°C° 0 mm 3 m/s 701 mmHg 37%
    10:00 +17°C° 0 mm 3 m/s 701 mmHg 37%
    11:00 +18°C° 0 mm 2 m/s 701 mmHg 36%
    12:00 +19°C° 0 mm 2 m/s 700 mmHg 36%
    13:00 +19°C° 0 mm 2 m/s 700 mmHg 35%
    14:00 +20°C° 0 mm 2 m/s 700 mmHg 34%
    15:00 +19°C° 0 mm 2 m/s 700 mmHg 36%
    16:00 +18°C° 0 mm 2 m/s 700 mmHg 38%
    17:00 +17°C° 0 mm 2 m/s 700 mmHg 40%
    18:00 +16°C° 0 mm 2 m/s 700 mmHg 43%
    19:00 +16°C° 0 mm 2 m/s 700 mmHg 45%
    20:00 +15°C° 0 mm 2 m/s 700 mmHg 47%
    21:00 +15°C° 0 mm 2 m/s 700 mmHg 49%
    22:00 +14°C° 0 mm 2 m/s 700 mmHg 51%
    23:00 +14°C° 0 mm 2 m/s 700 mmHg 54%
    Mostrar mais